Wind_Speed
4 5 3 3 4 6 5 8 8 7 6 5 4 6 5 5 4 3 2 3 2 2 2 2 3 3 3 3 2 2 2 2 2
5 4 2 1 4 5 7 9 10 10 7 7 6 4 6 4 4 3 2 2 3 3 1 2 2 3 3 4 3 2 1 1 2
4 4 2 2 4 6 5 8 11 11 10 9 8 8 8 6 5 3 3 3 3 1 3 2 3 5 5 5 5 4 3 2 1
2 3 3 2 6 6 7 6 5 7 10 10 8 9 8 7 7 7 5 4 4 5 4 6 6 8 8 9 8 6 4 3 2
3 2 2 5 7 4 7 6 6 6 6 9 10 9 10 9 6 4 3 6 7 10 10 8 9 6 8 12 11 7 6 5 4
3 1 2 5 6 5 4 3 2 10 10 11 12 14 12 12 9 9 12 10 11 9 12 12 14 8 7 11 14 18 9 6 3
5 5 6 6 6 6 5 2 2 0 5 13 13 15 15 15 14 12 17 11 15 9 10 9 7 9 8 4 7 18 18 10 5
7 8 9 9 9 8 8 7 5 5 4 3 9 20 17 13 8 8 11 12 8 7 14 5 5 3 6 4 10 10 18 18 11
9 9 10 12 12 12 11 10 8 9 10 8 8 6 11 12 11 10 8 8 2 8 11 15 2 4 12 12 10 5 2 2 4
13 12 12 12 13 14 13 12 12 12 13 16 15 13 10 11 12 17 20 14 2 11 16 10 11 8 7 1 2 2 3 5 7
19 18 17 15 15 15 14 13 14 14 15 16 19 20 18 16 18 17 19 19 15 17 7 2 9 5 2 5 11 10 8 9 9
18 19 20 19 17 16 15 15 15 16 16 16 19 21 23 24 23 24 22 22 25 25 21 16 12 12 12 15 14 15 15 14 12
15 17 18 19 18 17 18 18 17 18 18 18 18 19 21 21 21 22 23 23 24 26 26 25 24 24 23 23 22 18 18 20 19
12 13 14 17 18 18 17 19 19 18 17 18 18 18 19 20 20 20 20 21 23 25 26 26 26 26 25 24 23 21 24 20 20
12 11 12 15 16 17 17 18 19 18 17 16 15 16 17 18 19 19 19 20 22 23 24 25 25 25 24 24 23 23 27 28 26
13 12 13 15 15 16 17 19 19 19 18 17 16 16 17 18 17 18 17 16 19 21 22 23 24 24 23 23 23 23 27 29 23
12 14 16 16 16 17 17 19 20 19 18 19 19 17 18 19 19 18 17 18 18 18 18 18 19 21 21 21 22 24 26 26 21
13 13 16 19 19 19 19 20 21 21 19 20 20 20 20 18 20 19 20 19 19 19 18 18 19 20 20 21 22 23 25 26 24
15 15 14 17 21 22 22 22 22 22 22 21 22 22 22 22 21 19 19 20 21 21 21 20 21 21 21 22 23 25 25 27 27
17 18 17 15 18 22 24 25 25 24 25 24 23 24 24 25 25 24 23 23 23 24 23 24 23 23 25 25 26 27 29 30 31
Wind_Direction
84 80 104 130 156 154 173 175 174 181 177 173 158 169 165 167 173 168 192 165 168 160 160 172 168 177 174 170 149 136 115 99 69
89 71 68 123 180 161 175 182 184 193 190 181 193 207 174 181 182 180 183 248 245 231 193 198 204 214 213 209 206 187 169 131 90
68 41 51 114 164 162 149 185 187 197 215 223 219 221 229 208 205 196 212 244 209 219 265 252 278 262 246 237 227 216 200 175 130
20 1 1 115 146 170 188 157 178 199 213 224 236 234 227 220 229 204 190 233 238 224 220 266 276 284 276 260 243 227 212 202 179
294 326 88 121 127 148 200 204 214 205 222 225 225 219 221 206 182 199 216 268 245 262 259 256 244 254 288 272 250 238 222 205 191
242 242 167 149 144 139 145 162 176 222 225 227 236 223 206 204 214 223 248 280 278 265 253 270 242 266 268 253 258 231 219 193 171
226 224 231 226 208 186 179 194 245 140 241 230 230 218 217 214 224 254 247 255 266 250 261 256 254 271 239 218 232 217 195 171 124
241 236 237 240 237 237 235 226 234 231 265 238 225 232 234 242 231 229 233 245 268 285 235 225 316 71 110 120 69 208 200 212 216
252 250 249 247 248 244 244 252 248 237 233 227 227 209 222 216 237 231 138 178 166 354 257 217 174 166 71 67 71 74 79 348 277
253 257 257 256 254 252 247 250 252 242 238 234 233 221 217 223 231 240 239 253 149 112 89 122 16 48 77 34 280 324 284 257 275
255 256 256 258 258 256 252 245 248 246 241 239 238 237 234 235 240 243 242 242 220 224 198 171 142 206 218 247 279 279 279 274 284
255 254 254 253 254 255 250 245 244 245 243 240 239 240 237 238 242 244 245 238 236 241 249 246 234 240 254 274 291 290 292 282 277
258 255 256 254 251 251 250 245 238 241 238 237 237 239 237 237 235 236 237 236 235 239 244 246 252 255 255 265 277 280 278 275 270
260 257 253 251 251 250 245 245 244 242 241 243 239 240 236 236 237 238 239 238 237 241 245 250 254 258 261 266 269 269 271 267 271
250 249 253 252 248 251 250 248 246 249 248 244 242 245 246 241 239 240 241 242 241 243 245 249 253 258 263 265 266 266 267 264 262
253 250 244 245 248 250 254 256 255 254 255 256 251 248 249 248 245 243 242 242 246 244 247 249 252 257 261 263 261 261 265 267 272
253 253 248 241 242 244 247 254 259 259 257 259 258 253 250 247 248 249 250 247 246 248 248 248 249 249 252 256 259 262 264 270 273
260 254 249 245 243 243 245 249 254 260 259 259 260 260 261 258 252 253 255 257 258 258 256 252 251 254 256 257 259 262 267 272 272
266 264 251 248 247 244 246 247 249 255 258 257 260 261 262 263 265 260 261 261 262 263 263 262 262 261 262 264 265 266 270 272 274
272 271 268 258 251 250 248 247 248 249 252 255 257 258 261 262 266 267 263 265 268 268 267 264 263 265 265 264 267 270 272 274 277
Height
3165 3166 3168 3169 3169 3170 3172 3173 3175 3176 3177 3178 3179 3180 3180 3182 3183 3184 3185 3185 3185 3185 3186 3185 3185 3185 3185 3185 3186 3186 3186 3186 3186
3164 3165 3167 3168 3169 3169 3171 3172 3174 3176 3177 3177 3178 3181 3182 3183 3184 3184 3185 3184 3184 3184 3184 3186 3186 3186 3186 3186 3186 3186 3186 3187 3187
3165 3165 3166 3168 3169 3170 3171 3171 3172 3174 3176 3176 3177 3179 3182 3183 3183 3184 3186 3185 3184 3184 3185 3186 3186 3186 3186 3186 3186 3186 3186 3187 3187
3164 3164 3165 3166 3169 3171 3172 3172 3174 3175 3175 3177 3178 3179 3180 3181 3182 3184 3185 3185 3185 3185 3185 3186 3186 3186 3186 3186 3186 3186 3186 3186 3186
3163 3164 3163 3165 3167 3170 3171 3172 3174 3174 3176 3176 3178 3178 3179 3181 3181 3184 3185 3184 3184 3184 3183 3184 3185 3185 3185 3185 3186 3185 3185 3186 3186
3162 3163 3164 3165 3167 3169 3171 3172 3173 3174 3175 3176 3176 3177 3178 3180 3181 3182 3184 3184 3183 3181 3181 3182 3182 3183 3183 3183 3183 3184 3185 3186 3186
3161 3162 3163 3164 3166 3167 3169 3171 3172 3173 3174 3174 3175 3176 3177 3178 3180 3181 3182 3183 3180 3179 3180 3181 3180 3180 3180 3180 3179 3180 3182 3185 3185
3160 3162 3162 3161 3163 3165 3167 3168 3170 3172 3173 3174 3174 3175 3176 3177 3179 3179 3181 3181 3177 3172 3175 3176 3178 3177 3176 3177 3179 3179 3180 3182 3184
3158 3159 3160 3160 3161 3163 3164 3166 3167 3169 3170 3172 3173 3173 3173 3176 3177 3180 3181 3173 3178 3176 3175 3175 3176 3176 3177 3178 3181 3183 3184 3184 3185
3155 3157 3158 3158 3158 3161 3162 3163 3165 3166 3167 3170 3172 3172 3172 3174 3175 3177 3178 3181 3180 3179 3168 3169 3175 3178 3178 3181 3182 3183 3184 3185 3185
3151 3154 3155 3155 3155 3157 3158 3160 3161 3163 3164 3166 3169 3171 3170 3171 3172 3173 3175 3177 3179 3180 3179 3177 3178 3180 3179 3181 3181 3182 3183 3183 3183
3148 3150 3152 3153 3153 3154 3155 3156 3158 3159 3160 3162 3165 3167 3167 3168 3169 3170 3171 3173 3174 3176 3177 3177 3177 3178 3179 3179 3180 3180 3180 3181 3180
3145 3146 3147 3150 3152 3151 3153 3153 3154 3157 3158 3159 3161 3164 3164 3165 3165 3166 3167 3169 3170 3172 3172 3173 3174 3175 3177 3177 3177 3177 3176 3176 3176
3142 3143 3144 3146 3148 3148 3150 3150 3150 3151 3154 3155 3156 3160 3161 3162 3162 3162 3163 3164 3166 3168 3169 3169 3170 3171 3172 3173 3173 3174 3173 3172 3172
3137 3138 3140 3142 3143 3145 3146 3147 3146 3148 3149 3151 3153 3155 3156 3157 3157 3158 3159 3160 3162 3163 3164 3165 3166 3167 3168 3168 3169 3169 3167 3166 3168
3134 3134 3135 3138 3139 3141 3142 3142 3143 3145 3147 3148 3148 3150 3151 3152 3153 3154 3155 3156 3158 3158 3159 3160 3162 3163 3163 3164 3165 3164 3161 3160 3164
3130 3130 3132 3133 3134 3136 3137 3140 3140 3141 3143 3144 3145 3146 3149 3148 3149 3150 3152 3152 3154 3155 3156 3157 3158 3158 3158 3159 3160 3159 3157 3157 3160
3126 3126 3129 3130 3130 3131 3132 3135 3136 3137 3138 3140 3142 3142 3145 3145 3146 3147 3149 3150 3151 3152 3152 3153 3153 3154 3154 3154 3154 3154 3154 3154 3155
3119 3122 3124 3125 3126 3127 3127 3130 3132 3133 3133 3135 3136 3138 3140 3140 3142 3143 3145 3146 3147 3147 3148 3149 3150 3149 3149 3149 3150 3149 3149 3148 3149
3115 3118 3118 3120 3121 3122 3123 3125 3127 3127 3128 3129 3131 3133 3134 3136 3137 3138 3140 3141 3142 3143 3143 3144 3145 3145 3144 3144 3144 3145 3144 3143 3142